This is the latest recevied weather packets stored in our database for station/object KO4APQ. If no packets are shown the sender has not sent any weather packets the latest 10 day(s).
| Time | Temp. | Humidity | Pressure | Rain* | Wind** | Luminosity | Snow |
|---|---|---|---|---|---|---|---|
| 1777628020 | 11.67° C | 90% | 1013.9 hPa | 0 mm | - | 0 W/m² | - |
| 1777627720 | 11.67° C | 90% | 1014.1 hPa | 0 mm | - | 0 W/m² | - |
| 1777627419 | 11.67° C | 89% | 1014.1 hPa | 0 mm | - | 0 W/m² | - |
| 1777627115 | 11.67° C | 89% | 1014 hPa | 0 mm | - | 0 W/m² | - |
| 1777626812 | 11.67° C | 88% | 1013.8 hPa | 0 mm | - | 0 W/m² | - |
| 1777626509 | 11.67° C | 88% | 1014 hPa | 0 mm | - | 0 W/m² | - |
| 1777626209 | 11.67° C | 88% | 1013.8 hPa | 0 mm | - | 0 W/m² | - |
| 1777625907 | 11.67° C | 88% | 1013.5 hPa | 0 mm | - | 0 W/m² | - |
| 1777625603 | 11.67° C | 90% | 1013.8 hPa | 0 mm | - | 0 W/m² | - |
| 1777625298 | 11.67° C | 90% | 1013.8 hPa | 0 mm | - | 0 W/m² | - |
| 1777624996 | 11.67° C | 90% | 1013.8 hPa | 0 mm | - | 0 W/m² | - |
| 1777624693 | 12.22° C | 89% | 1013.6 hPa | 0 mm | - | 0 W/m² | - |
| 1777624388 | 12.22° C | 90% | 1013.8 hPa | 0 mm | - | 0 W/m² | - |
| 1777624085 | 12.22° C | 90% | 1013.5 hPa | 0 mm | - | 0 W/m² | - |
| 1777623782 | 12.22° C | 89% | 1013.5 hPa | 0 mm | - | 0 W/m² | - |
| 1777623478 | 12.22° C | 89% | 1013.3 hPa | 0 mm | - | 0 W/m² | - |
| 1777623176 | 12.22° C | 88% | 1013.3 hPa | 0 mm | - | 0 W/m² | - |
| 1777622873 | 12.22° C | 87% | 1013.4 hPa | 0 mm | - | 0 W/m² | - |
| 1777622569 | 12.22° C | 87% | 1013.2 hPa | 0 mm | - | 0 W/m² | - |
| 1777622266 | 12.78° C | 87% | 1013.2 hPa | 0 mm | - | 0 W/m² | - |
| 1777621963 | 12.78° C | 84% | 1013 hPa | 0 mm | - | 0 W/m² | - |
| 1777621658 | 12.78° C | 82% | 1013 hPa | 0 mm | - | 0 W/m² | - |
| 1777621355 | 12.78° C | 84% | 1012.9 hPa | 0 mm | - | 0 W/m² | - |
| 1777621050 | 12.22° C | 86% | 1013.1 hPa | 0 mm | - | 0 W/m² | - |
| 1777620746 | 12.78° C | 86% | 1013.4 hPa | 0 mm | - | 0 W/m² | - |
* Rain latest hour (hover to see other rain measurements)
** Current wind speed in m/s (hover to see current wind gust speed)